M I D A S
Marine Information and Data Acquisition System
Tripno 64 of the Zeeleeuw from 2001-10-29 07:55:50 to 2001-10-29 14:55:00
Back to CruiseResearch ActivitiesStationsMapUnderway DataData graphs

EquipmentUnitsComments
TimeDGPSUTC
LatitudeDGPSDM.mWGS84
LongitudeDGPSDM.mWGS84
SpeedMeteo Stationm/sRelative wind speed
DirectionMeteo StationdegRelative wind direction
TemperatureMeteo Stationdeg CelciusAir temperature
PressureMeteo StationPaAtmospheric pressure
HumidityMeteo Station%Relative humidity
Missing or incorrect values are displayed as -999
Metereological data collected by the RV Zeeleeuw from 2001-10-29 07:55:50 to 2001-10-29 14:55:00
                                                                                    Next 1000 lines
Time Latitude Longitude Speed Direction Temperature Pressure Humidity
2001-10-29 07:56:00 51°13.689 2°55.905 2.7 188 11.3 102510 89
2001-10-29 07:56:05 51°13.689 2°55.905 1.7 193 11.3 102510 89
2001-10-29 08:09:11 51°13.689 2°55.905 3.7 149 13.5 102520 76
2001-10-29 08:09:17 51°13.689 2°55.905 3.5 145 13.5 102520 76
2001-10-29 08:09:21 51°13.69 2°55.905 4.3 137 13.5 102520 76
2001-10-29 08:09:26 51°13.689 2°55.905 2.5 155 13.5 102520 76
2001-10-29 08:09:31 51°13.689 2°55.905 3.4 145 13.5 102520 76
2001-10-29 08:09:37 51°13.689 2°55.905 3.8 162 13.5 102520 76
2001-10-29 08:09:41 51°13.689 2°55.905 3.7 150 13.5 102520 76
2001-10-29 08:09:47 51°13.689 2°55.905 3.2 145 13.5 102520 76
2001-10-29 08:09:51 51°13.689 2°55.905 5.7 141 13.5 102520 76
2001-10-29 08:09:56 51°13.689 2°55.905 4.8 145 13.5 102520 76
2001-10-29 08:10:01 51°13.689 2°55.905 4.7 138 13.5 102520 76
2001-10-29 08:10:07 51°13.689 2°55.905 5.4 141 13.5 102520 76
2001-10-29 08:10:11 51°13.689 2°55.905 4.4 148 13.5 102520 76
2001-10-29 08:10:17 51°13.689 2°55.906 4.8 152 13.5 102520 76
2001-10-29 08:10:21 51°13.689 2°55.906 3.7 144 13.5 102520 76
2001-10-29 08:10:27 51°13.689 2°55.906 3.6 156 13.5 102520 76
2001-10-29 08:10:31 51°13.689 2°55.906 4.2 148 13.5 102520 76
2001-10-29 08:10:36 51°13.689 2°55.905 4.3 151 13.5 102520 76
2001-10-29 08:10:41 51°13.689 2°55.905 3.6 146 13.5 102520 76
2001-10-29 08:10:46 51°13.689 2°55.906 4.1 150 13.5 102520 76
2001-10-29 08:10:51 51°13.689 2°55.905 5.4 144 13.5 102520 76
2001-10-29 08:10:57 51°13.689 2°55.905 5.1 143 13.5 102520 76
2001-10-29 08:11:01 51°13.689 2°55.905 5.7 141 13.5 102520 76
2001-10-29 08:11:06 51°13.689 2°55.905 4.6 146 13.5 102520 76
2001-10-29 08:11:11 51°13.689 2°55.905 4.4 142 13.5 102520 76
2001-10-29 08:11:16 51°13.689 2°55.905 3.7 159 13.5 102520 76
2001-10-29 08:11:21 51°13.689 2°55.905 2.8 157 13.5 102520 76
2001-10-29 08:11:27 51°13.689 2°55.905 3.2 158 13.5 102520 76
2001-10-29 08:11:31 51°13.689 2°55.905 3.8 174 13.5 102520 76
2001-10-29 08:11:37 51°13.689 2°55.905 3.4 141 13.5 102520 76
2001-10-29 08:11:41 51°13.689 2°55.905 3.6 166 13.5 102520 76
2001-10-29 08:11:46 51°13.689 2°55.905 3.6 144 13.5 102520 76
2001-10-29 08:11:51 51°13.689 2°55.905 5.3 143 13.6 102520 76
2001-10-29 08:11:56 51°13.689 2°55.905 4.9 131 13.6 102520 76
2001-10-29 08:12:01 51°13.689 2°55.905 4.5 144 13.6 102520 76
2001-10-29 08:12:07 51°13.689 2°55.905 3.5 146 13.6 102520 76
2001-10-29 08:12:11 51°13.689 2°55.905 4.2 146 13.6 102520 76
2001-10-29 08:12:16 51°13.689 2°55.905 3.1 148 13.6 102520 76
2001-10-29 08:12:21 51°13.689 2°55.905 3.5 159 13.6 102520 76
2001-10-29 08:12:26 51°13.689 2°55.905 3.2 143 13.6 102520 76
2001-10-29 08:12:31 51°13.689 2°55.905 4.3 142 13.6 102520 76
2001-10-29 08:12:37 51°13.689 2°55.905 3 149 13.6 102520 76
2001-10-29 08:12:41 51°13.689 2°55.905 2.8 141 13.6 102520 76
2001-10-29 08:12:47 51°13.689 2°55.905 5.5 145 13.6 102520 76
2001-10-29 08:12:51 51°13.689 2°55.906 5.2 140 13.6 102520 76
2001-10-29 08:12:56 51°13.689 2°55.906 3.5 134 13.6 102520 76
2001-10-29 08:13:01 51°13.689 2°55.906 3.3 148 13.6 102520 76
2001-10-29 08:13:06 51°13.689 2°55.906 2.7 127 13.6 102520 76
2001-10-29 08:13:11 51°13.689 2°55.906 2.9 148 13.6 102520 76
2001-10-29 08:13:17 51°13.689 2°55.906 2.6 145 13.6 102520 76
2001-10-29 08:13:21 51°13.689 2°55.906 2.9 145 13.6 102520 76
2001-10-29 08:13:26 51°13.689 2°55.906 3 143 13.6 102520 76
2001-10-29 08:13:31 51°13.689 2°55.906 3 152 13.6 102520 76
2001-10-29 08:13:36 51°13.689 2°55.905 2.6 149 13.6 102520 76
2001-10-29 08:13:41 51°13.689 2°55.905 2.6 143 13.6 102520 76
2001-10-29 08:13:47 51°13.689 2°55.905 3.5 147 13.6 102520 76
2001-10-29 08:13:51 51°13.689 2°55.905 3.6 139 13.6 102520 75
2001-10-29 08:13:56 51°13.689 2°55.905 2.7 135 13.6 102520 75
2001-10-29 08:14:01 51°13.689 2°55.905 3.2 150 13.6 102520 75
2001-10-29 08:14:06 51°13.689 2°55.905 6.4 151 13.6 102520 75
2001-10-29 08:14:11 51°13.689 2°55.905 6.2 149 13.6 102520 75
2001-10-29 08:14:17 51°13.688 2°55.904 5.1 131 13.6 102520 75
2001-10-29 08:14:21 51°13.688 2°55.904 3.4 145 13.6 102520 75
2001-10-29 08:14:27 51°13.688 2°55.904 4.4 132 13.6 102520 75
2001-10-29 08:14:31 51°13.688 2°55.904 5.3 137 13.6 102520 75
2001-10-29 08:14:36 51°13.688 2°55.904 3.8 134 13.6 102520 75
2001-10-29 08:14:41 51°13.688 2°55.904 3.9 142 13.6 102520 74
2001-10-29 08:14:46 51°13.688 2°55.904 4.5 133 13.6 102520 74
2001-10-29 08:14:51 51°13.688 2°55.904 5.2 146 13.6 102520 74
2001-10-29 08:14:57 51°13.688 2°55.904 5.2 142 13.6 102520 74
2001-10-29 08:15:01 51°13.688 2°55.904 3.5 143 13.6 102520 74
2001-10-29 08:15:06 51°13.688 2°55.904 4.5 140 13.6 102520 74
2001-10-29 08:15:11 51°13.688 2°55.904 4 143 13.6 102520 74
2001-10-29 08:15:16 51°13.688 2°55.904 5.5 132 13.6 102520 74
2001-10-29 08:15:21 51°13.688 2°55.904 3.3 161 13.6 102520 74
2001-10-29 08:15:27 51°13.688 2°55.904 3.3 155 13.6 102520 74
2001-10-29 08:15:31 51°13.688 2°55.904 3.7 144 13.6 102520 74
2001-10-29 08:15:37 51°13.688 2°55.905 4.6 142 13.6 102520 74
2001-10-29 08:15:41 51°13.688 2°55.905 4.9 140 13.6 102520 74
2001-10-29 08:15:46 51°13.688 2°55.905 6.4 150 13.6 102520 74
2001-10-29 08:15:51 51°13.688 2°55.905 5.8 146 13.6 102510 74
2001-10-29 08:15:56 51°13.688 2°55.905 4.7 152 13.6 102510 74
2001-10-29 08:16:01 51°13.688 2°55.905 4.2 142 13.6 102510 75
2001-10-29 08:16:07 51°13.688 2°55.906 5.1 149 13.6 102510 75
2001-10-29 08:16:11 51°13.688 2°55.906 4 149 13.6 102520 74
2001-10-29 08:16:16 51°13.688 2°55.905 4.4 144 13.6 102520 74
2001-10-29 08:16:21 51°13.688 2°55.905 4.1 155 13.6 102510 74
2001-10-29 08:16:26 51°13.688 2°55.905 5.2 140 13.6 102510 74
2001-10-29 08:16:31 51°13.688 2°55.905 5.1 140 13.6 102510 74
2001-10-29 08:16:37 51°13.688 2°55.905 4 147 13.6 102510 74
2001-10-29 08:16:40 51°13.688 2°55.905 4.3 150 13.6 102510 74
2001-10-29 08:16:43 51°13.688 2°55.905 3.8 146 13.6 102510 74
2001-10-29 08:16:46 51°13.688 2°55.905 4.2 150 13.6 102510 74
2001-10-29 08:16:51 51°13.688 2°55.905 5.2 185 13.6 102510 74
2001-10-29 08:16:57 51°13.688 2°55.905 4.4 154 13.6 102510 74
2001-10-29 08:17:02 51°13.688 2°55.905 3.6 138 13.6 102510 74
2001-10-29 08:17:07 51°13.688 2°55.905 4.4 143 13.6 102520 74
2001-10-29 08:17:12 51°13.688 2°55.905 4.8 139 13.6 102520 74
2001-10-29 08:17:17 51°13.688 2°55.905 5.3 142 13.6 102510 74
2001-10-29 08:17:22 51°13.688 2°55.905 5.5 133 13.6 102510 74
2001-10-29 08:17:26 51°13.688 2°55.905 5.5 149 13.6 102510 74
2001-10-29 08:17:31 51°13.688 2°55.905 3.7 134 13.6 102510 74
2001-10-29 08:17:37 51°13.688 2°55.905 4.6 145 13.7 102510 74
2001-10-29 08:17:42 51°13.688 2°55.905 4 134 13.7 102510 74
2001-10-29 08:17:47 51°13.688 2°55.905 4.4 150 13.6 102510 74
2001-10-29 08:17:52 51°13.688 2°55.905 4.7 163 13.6 102510 74
2001-10-29 08:17:57 51°13.688 2°55.905 4.8 143 13.6 102510 74
2001-10-29 08:18:02 51°13.687 2°55.905 4.9 143 13.6 102510 74
2001-10-29 08:18:06 51°13.688 2°55.905 4.1 129 13.6 102510 74
2001-10-29 08:18:12 51°13.688 2°55.905 5.4 137 13.6 102510 74
2001-10-29 08:18:16 51°13.688 2°55.905 4.2 153 13.6 102510 74
2001-10-29 08:18:22 51°13.687 2°55.905 3.1 170 13.6 102510 74
2001-10-29 08:18:27 51°13.688 2°55.905 6.7 146 13.7 102510 74
2001-10-29 08:18:32 51°13.688 2°55.905 6.5 142 13.7 102510 74
2001-10-29 08:18:37 51°13.688 2°55.905 5.6 135 13.7 102510 74
2001-10-29 08:18:42 51°13.688 2°55.905 5 144 13.7 102510 74
2001-10-29 08:18:46 51°13.688 2°55.905 5.9 145 13.7 102510 75
2001-10-29 08:18:52 51°13.688 2°55.905 4 145 13.7 102510 75
2001-10-29 08:18:57 51°13.688 2°55.905 6.1 147 13.7 102510 74
2001-10-29 08:19:02 51°13.688 2°55.905 4.2 146 13.7 102510 74
2001-10-29 08:19:06 51°13.688 2°55.905 4.3 172 13.7 102500 74
2001-10-29 08:19:11 51°13.688 2°55.905 3.9 183 13.7 102500 74
2001-10-29 08:19:17 51°13.688 2°55.905 5.5 141 13.7 102510 74
2001-10-29 08:19:22 51°13.688 2°55.905 5.6 156 13.7 102510 74
2001-10-29 08:19:26 51°13.688 2°55.905 6.1 149 13.7 102510 74
2001-10-29 08:19:32 51°13.688 2°55.904 5.8 154 13.7 102510 74
2001-10-29 08:19:37 51°13.688 2°55.904 4.7 140 13.7 102500 74
2001-10-29 08:19:42 51°13.688 2°55.904 5.2 150 13.7 102500 74
2001-10-29 08:19:46 51°13.688 2°55.904 4.4 146 13.7 102510 74
2001-10-29 08:19:52 51°13.688 2°55.904 4.4 141 13.7 102510 74
2001-10-29 08:19:57 51°13.688 2°55.904 4.5 142 13.7 102510 74
2001-10-29 08:20:02 51°13.688 2°55.904 3.8 154 13.7 102510 74
2001-10-29 08:20:07 51°13.688 2°55.904 4.7 141 13.7 102510 74
2001-10-29 08:20:12 51°13.688 2°55.904 5 144 13.7 102510 74
2001-10-29 08:20:17 51°13.688 2°55.904 4.1 141 13.7 102510 74
2001-10-29 08:20:22 51°13.688 2°55.904 5.4 150 13.7 102510 74
2001-10-29 08:20:26 51°13.688 2°55.904 4.7 154 13.7 102510 74
2001-10-29 08:20:31 51°13.688 2°55.904 3.7 176 13.7 102510 74
2001-10-29 08:20:37 51°13.688 2°55.904 4.3 148 13.7 102510 74
2001-10-29 08:20:42 51°13.688 2°55.904 4.9 139 13.7 102510 74
2001-10-29 08:20:47 51°13.688 2°55.904 3.4 155 13.7 102510 74
2001-10-29 08:20:52 51°13.688 2°55.904 3.1 141 13.7 102510 74
2001-10-29 08:20:57 51°13.688 2°55.904 4 137 13.7 102510 74
2001-10-29 08:21:02 51°13.688 2°55.904 4 145 13.7 102510 74
2001-10-29 08:21:06 51°13.688 2°55.905 4.2 149 13.7 102510 74
2001-10-29 08:21:12 51°13.688 2°55.904 4.8 151 13.7 102510 74
2001-10-29 08:21:17 51°13.688 2°55.904 4.2 161 13.7 102510 74
2001-10-29 08:21:22 51°13.688 2°55.905 4.4 144 13.7 102510 74
2001-10-29 08:21:26 51°13.688 2°55.904 4.5 141 13.7 102510 74
2001-10-29 08:21:32 51°13.688 2°55.905 4.6 157 13.7 102510 74
2001-10-29 08:21:37 51°13.688 2°55.905 4.3 151 13.8 102510 75
2001-10-29 08:21:42 51°13.688 2°55.905 4.3 159 13.8 102510 75
2001-10-29 08:21:47 51°13.688 2°55.905 5.5 142 13.8 102510 74
2001-10-29 08:21:52 51°13.688 2°55.905 4.9 144 13.8 102510 74
2001-10-29 08:21:57 51°13.688 2°55.905 4.5 155 13.8 102510 74
2001-10-29 08:22:02 51°13.687 2°55.905 5.4 158 13.8 102510 74
2001-10-29 08:22:06 51°13.687 2°55.905 5.6 154 13.8 102510 74
2001-10-29 08:22:12 51°13.687 2°55.904 6.4 135 13.8 102510 74
2001-10-29 08:22:17 51°13.687 2°55.904 6 141 13.8 102510 74
2001-10-29 08:22:22 51°13.687 2°55.904 5.7 132 13.8 102510 74
2001-10-29 08:22:26 51°13.687 2°55.904 5.2 140 13.8 102500 74
2001-10-29 08:22:31 51°13.687 2°55.904 5 134 13.8 102500 74
2001-10-29 08:22:36 51°13.687 2°55.904 5 140 13.8 102510 74
2001-10-29 08:22:42 51°13.687 2°55.904 4.9 139 13.8 102510 74
2001-10-29 08:22:47 51°13.687 2°55.904 5 138 13.8 102510 74
2001-10-29 08:22:52 51°13.687 2°55.904 4.1 144 13.8 102510 74
2001-10-29 08:22:57 51°13.687 2°55.904 4.7 143 13.8 102510 74
2001-10-29 08:23:02 51°13.687 2°55.904 6.3 140 13.8 102510 74
2001-10-29 08:23:07 51°13.687 2°55.904 5.5 141 13.8 102510 74
2001-10-29 08:23:12 51°13.687 2°55.903 4.7 147 13.8 102510 74
2001-10-29 08:23:17 51°13.687 2°55.904 4.4 136 13.8 102510 74
2001-10-29 08:23:22 51°13.687 2°55.904 3.6 154 13.8 102510 74
2001-10-29 08:23:26 51°13.687 2°55.904 3.9 160 13.8 102510 74
2001-10-29 08:23:32 51°13.687 2°55.904 5.2 146 13.8 102510 74
2001-10-29 08:23:37 51°13.687 2°55.904 4.3 143 13.8 102510 74
2001-10-29 08:23:42 51°13.687 2°55.904 5.2 151 13.8 102510 74
2001-10-29 08:23:47 51°13.687 2°55.904 6.6 135 13.8 102510 74
2001-10-29 08:23:51 51°13.687 2°55.905 6.1 144 13.8 102510 74
2001-10-29 08:23:57 51°13.687 2°55.905 4.2 150 13.8 102510 73
2001-10-29 08:24:02 51°13.687 2°55.905 4 139 13.8 102510 73
2001-10-29 08:24:07 51°13.687 2°55.905 6.7 140 13.8 102510 73
2001-10-29 08:24:12 51°13.687 2°55.905 5.9 140 13.8 102510 73
2001-10-29 08:24:17 51°13.687 2°55.905 6.1 149 13.8 102510 73
2001-10-29 08:24:22 51°13.687 2°55.905 4.5 160 13.8 102510 73
2001-10-29 08:24:27 51°13.687 2°55.905 3.7 165 13.8 102510 73
2001-10-29 08:24:32 51°13.687 2°55.905 4.5 141 13.8 102510 73
2001-10-29 08:24:37 51°13.687 2°55.905 4.9 151 13.8 102510 73
2001-10-29 08:24:42 51°13.687 2°55.905 5.1 141 13.8 102510 73
2001-10-29 08:24:47 51°13.687 2°55.905 5.2 138 13.8 102510 74
2001-10-29 08:24:51 51°13.687 2°55.905 4.8 145 13.8 102510 74
2001-10-29 08:24:56 51°13.687 2°55.905 4.6 147 13.8 102510 74
2001-10-29 08:25:02 51°13.687 2°55.905 3.7 146 13.8 102510 74
2001-10-29 08:25:07 51°13.687 2°55.905 4.9 151 13.8 102510 73
2001-10-29 08:25:12 51°13.688 2°55.905 4.7 148 13.8 102510 73
2001-10-29 08:25:17 51°13.688 2°55.905 6 147 13.8 102510 74
2001-10-29 08:25:22 51°13.688 2°55.905 5.4 155 13.8 102510 74
2001-10-29 08:25:27 51°13.688 2°55.905 5.2 147 13.8 102510 74
2001-10-29 08:25:32 51°13.688 2°55.905 5.2 171 13.8 102510 74
2001-10-29 08:25:37 51°13.688 2°55.905 5.8 142 13.8 102510 73
2001-10-29 08:25:42 51°13.688 2°55.905 4.2 155 13.8 102510 73
2001-10-29 08:25:47 51°13.688 2°55.905 4.5 160 13.8 102510 73
2001-10-29 08:25:52 51°13.688 2°55.905 5.6 154 13.8 102510 73
2001-10-29 08:25:57 51°13.688 2°55.905 4.5 145 13.8 102510 73
2001-10-29 08:26:02 51°13.687 2°55.905 4.6 133 13.8 102510 73
2001-10-29 08:26:06 51°13.687 2°55.905 5.2 140 13.8 102510 73
2001-10-29 08:26:12 51°13.687 2°55.906 4.7 141 13.8 102510 73
2001-10-29 08:26:17 51°13.687 2°55.906 5.7 144 13.8 102510 74
2001-10-29 08:26:22 51°13.687 2°55.906 4.9 157 13.8 102510 74
2001-10-29 08:26:27 51°13.687 2°55.906 6 133 13.8 102520 74
2001-10-29 08:26:31 51°13.687 2°55.906 5.4 125 13.8 102520 74
2001-10-29 08:26:37 51°13.688 2°55.906 5.5 159 13.8 102510 74
2001-10-29 08:26:42 51°13.688 2°55.906 5.3 145 13.8 102510 74
2001-10-29 08:26:46 51°13.688 2°55.906 4.6 140 13.8 102510 73
2001-10-29 08:26:52 51°13.688 2°55.906 4 150 13.8 102510 73
2001-10-29 08:26:57 51°13.688 2°55.906 4.7 141 13.8 102510 74
2001-10-29 08:27:02 51°13.688 2°55.906 4.1 143 13.8 102510 74
2001-10-29 08:27:07 51°13.687 2°55.906 4.2 147 13.8 102510 74
2001-10-29 08:27:11 51°13.688 2°55.906 3.1 151 13.8 102510 74
2001-10-29 08:27:17 51°13.688 2°55.906 3.6 147 13.8 102510 74
2001-10-29 08:27:22 51°13.688 2°55.906 4.7 145 13.8 102510 74
2001-10-29 08:27:27 51°13.688 2°55.906 3.4 154 13.9 102510 74
2001-10-29 08:27:32 51°13.688 2°55.906 3.7 140 13.9 102510 74
2001-10-29 08:27:37 51°13.688 2°55.906 3.5 145 13.9 102510 74
2001-10-29 08:27:42 51°13.687 2°55.906 3.8 141 13.9 102510 74
2001-10-29 08:27:47 51°13.687 2°55.906 3.5 142 13.9 102510 74
2001-10-29 08:27:51 51°13.687 2°55.906 2.6 145 13.9 102510 74
2001-10-29 08:27:57 51°13.687 2°55.906 3.2 134 13.9 102510 74
2001-10-29 08:28:02 51°13.688 2°55.906 5 136 13.9 102510 74
2001-10-29 08:28:07 51°13.688 2°55.906 4.3 142 13.9 102520 74
2001-10-29 08:28:12 51°13.688 2°55.906 5.2 136 13.9 102520 74
2001-10-29 08:28:17 51°13.688 2°55.906 6.8 132 13.9 102510 74
2001-10-29 08:28:22 51°13.688 2°55.906 4.7 138 13.9 102510 74
2001-10-29 08:28:27 51°13.688 2°55.906 3.7 149 13.9 102520 74
2001-10-29 08:28:31 51°13.688 2°55.906 4.5 148 13.9 102520 74
2001-10-29 08:28:37 51°13.688 2°55.906 4.4 159 13.8 102510 74
2001-10-29 08:28:42 51°13.688 2°55.906 4.3 145 13.8 102510 74
2001-10-29 08:28:46 51°13.688 2°55.906 4.4 141 13.9 102510 74
2001-10-29 08:28:52 51°13.687 2°55.906 4.5 133 13.9 102510 74
2001-10-29 08:28:56 51°13.687 2°55.906 4.2 134 13.8 102510 74
2001-10-29 08:29:02 51°13.687 2°55.905 3.8 145 13.8 102510 74
2001-10-29 08:29:06 51°13.687 2°55.905 4.9 130 13.9 102510 74
2001-10-29 08:29:11 51°13.687 2°55.906 4.8 141 13.9 102510 74
2001-10-29 08:29:17 51°13.687 2°55.906 4.3 145 13.9 102510 74
2001-10-29 08:29:22 51°13.687 2°55.905 4.3 138 13.9 102510 74
2001-10-29 08:29:27 51°13.687 2°55.905 4.4 146 13.9 102510 74
2001-10-29 08:29:32 51°13.687 2°55.905 5.7 148 13.9 102510 74
2001-10-29 08:29:37 51°13.687 2°55.905 6 142 13.9 102510 74
2001-10-29 08:29:42 51°13.687 2°55.905 6.7 132 13.9 102510 74
2001-10-29 08:29:47 51°13.687 2°55.906 5.2 141 13.9 102510 74
2001-10-29 08:29:52 51°13.687 2°55.906 5.7 148 13.9 102510 74
2001-10-29 08:29:57 51°13.687 2°55.906 5.7 142 13.9 102510 74
2001-10-29 08:30:02 51°13.687 2°55.906 3.6 156 13.9 102510 74
2001-10-29 08:30:07 51°13.687 2°55.906 3.8 139 13.9 102510 74
2001-10-29 08:30:11 51°13.687 2°55.906 4.2 156 13.9 102510 74
2001-10-29 08:30:17 51°13.687 2°55.905 3.1 173 13.9 102500 74
2001-10-29 08:30:22 51°13.687 2°55.906 3.9 140 13.9 102500 74
2001-10-29 08:30:26 51°13.687 2°55.905 3.5 137 13.9 102510 74
2001-10-29 08:30:31 51°13.687 2°55.906 3.4 167 13.9 102510 74
2001-10-29 08:30:37 51°13.687 2°55.905 3.1 166 13.9 102510 74
2001-10-29 08:30:42 51°13.687 2°55.905 4.5 178 13.9 102510 74
2001-10-29 08:30:46 51°13.687 2°55.905 4.3 162 13.9 102510 74
2001-10-29 08:30:52 51°13.687 2°55.905 4.4 140 13.9 102510 74
2001-10-29 08:30:57 51°13.687 2°55.905 4.4 147 13.9 102510 74
2001-10-29 08:31:02 51°13.687 2°55.905 4.1 152 13.9 102510 74
2001-10-29 08:31:07 51°13.687 2°55.905 3.8 149 13.9 102500 74
2001-10-29 08:31:12 51°13.688 2°55.906 2.6 136 13.9 102500 74
2001-10-29 08:31:17 51°13.688 2°55.906 3.5 170 13.9 102500 74
2001-10-29 08:31:22 51°13.687 2°55.906 3.1 154 13.9 102500 74
2001-10-29 08:31:27 51°13.687 2°55.906 6.1 148 13.9 102510 74
2001-10-29 08:31:32 51°13.687 2°55.906 4.8 142 13.9 102510 74
2001-10-29 08:31:37 51°13.687 2°55.906 4.8 141 13.9 102510 74
2001-10-29 08:31:42 51°13.687 2°55.906 5.5 134 13.9 102510 74
2001-10-29 08:31:47 51°13.687 2°55.906 3.9 143 13.9 102500 74
2001-10-29 08:31:52 51°13.687 2°55.906 3.4 170 13.9 102500 74
2001-10-29 08:31:57 51°13.687 2°55.906 4.1 149 13.9 102500 74
2001-10-29 08:32:02 51°13.687 2°55.906 4.2 155 13.9 102500 74
2001-10-29 08:32:07 51°13.687 2°55.906 4.2 163 13.9 102500 74
2001-10-29 08:32:11 51°13.687 2°55.906 5.4 138 13.9 102500 74
2001-10-29 08:32:17 51°13.688 2°55.906 6.5 138 13.9 102510 74
2001-10-29 08:32:22 51°13.688 2°55.906 5.5 130 13.9 102510 74
2001-10-29 08:32:26 51°13.688 2°55.906 4.3 145 13.9 102510 74
2001-10-29 08:32:32 51°13.688 2°55.906 4.5 157 13.9 102510 74
2001-10-29 08:32:37 51°13.688 2°55.906 4.2 152 13.9 102500 74
2001-10-29 08:32:42 51°13.688 2°55.906 3.3 144 13.9 102500 74
2001-10-29 08:32:47 51°13.688 2°55.906 3.3 140 13.9 102500 73
2001-10-29 08:32:52 51°13.688 2°55.906 4.7 147 13.9 102500 73
2001-10-29 08:32:57 51°13.688 2°55.906 4.3 136 13.9 102500 74
2001-10-29 08:33:02 51°13.688 2°55.906 3.7 147 13.9 102500 74
2001-10-29 08:33:06 51°13.688 2°55.906 3.9 150 13.9 102500 74
2001-10-29 08:33:11 51°13.688 2°55.906 3 165 13.9 102500 74
2001-10-29 08:33:16 51°13.688 2°55.906 3.4 142 13.9 102500 74
2001-10-29 08:33:22 51°13.688 2°55.906 3.2 149 13.9 102500 74
2001-10-29 08:33:27 51°13.688 2°55.906 3 143 13.9 102500 74
2001-10-29 08:33:32 51°13.688 2°55.906 3.7 145 13.9 102500 74
2001-10-29 08:33:37 51°13.688 2°55.906 3.4 142 13.9 102500 74
2001-10-29 08:33:42 51°13.688 2°55.906 3.9 138 13.9 102500 74
2001-10-29 08:33:59 51°13.688 2°55.906 6.3 142 13.9 102500 74
2001-10-29 08:34:13 51°13.688 2°55.906 4.9 149 13.9 102500 74
2001-10-29 08:34:18 51°13.688 2°55.906 4.2 145 13.9 102500 74
2001-10-29 08:34:23 51°13.689 2°55.906 3.4 140 13.9 102500 74
2001-10-29 08:34:28 51°13.688 2°55.906 3.7 139 13.9 102500 73
2001-10-29 08:34:33 51°13.688 2°55.906 3.8 152 13.9 102500 73
2001-10-29 08:34:38 51°13.688 2°55.906 4.9 153 13.9 102490 73
2001-10-29 08:34:43 51°13.688 2°55.906 4.8 148 13.9 102490 73
2001-10-29 08:34:48 51°13.688 2°55.906 4.2 142 13.9 102500 73
2001-10-29 08:34:53 51°13.688 2°55.906 4.1 153 13.9 102500 73
2001-10-29 08:34:58 51°13.688 2°55.906 4.1 149 13.9 102500 74
2001-10-29 08:35:03 51°13.688 2°55.906 3.3 169 13.9 102500 74
2001-10-29 08:35:07 51°13.688 2°55.906 2.7 163 14 102500 74
2001-10-29 08:35:13 51°13.688 2°55.906 2.8 155 14 102500 74
2001-10-29 08:35:18 51°13.688 2°55.906 2.7 163 14 102500 74
2001-10-29 08:35:23 51°13.688 2°55.906 3.4 144 14 102500 74
2001-10-29 08:35:28 51°13.688 2°55.906 3.5 148 14 102500 74
2001-10-29 08:35:34 51°13.688 2°55.906 3.4 136 14 102500 74
2001-10-29 08:35:38 51°13.688 2°55.906 3.5 140 14 102510 74
2001-10-29 08:35:43 51°13.688 2°55.906 5.1 139 14 102510 74
2001-10-29 08:35:48 51°13.688 2°55.906 4.1 132 14 102510 74
2001-10-29 08:35:53 51°13.688 2°55.906 4.8 135 14 102510 74
2001-10-29 08:35:58 51°13.688 2°55.906 4 140 14 102500 74
2001-10-29 08:36:03 51°13.688 2°55.906 3.9 144 14 102500 74
2001-10-29 08:36:08 51°13.688 2°55.906 4.4 147 14 102500 74
2001-10-29 08:36:13 51°13.688 2°55.906 3.6 126 14 102500 74
2001-10-29 08:36:18 51°13.688 2°55.906 2.9 118 14 102510 74
2001-10-29 08:36:23 51°13.688 2°55.906 3.1 131 14 102510 74
2001-10-29 08:36:28 51°13.688 2°55.906 4.3 130 14 102510 74
2001-10-29 08:36:33 51°13.688 2°55.906 5.6 134 14 102510 74
2001-10-29 08:36:38 51°13.688 2°55.906 6.5 141 14 102510 74
2001-10-29 08:36:43 51°13.688 2°55.906 3.4 129 14 102510 74
2001-10-29 08:36:48 51°13.688 2°55.906 4.3 128 14 102510 74
2001-10-29 08:36:53 51°13.688 2°55.906 4.2 153 14 102510 74
2001-10-29 08:36:58 51°13.688 2°55.906 2.7 147 14 102500 74
2001-10-29 08:37:03 51°13.688 2°55.906 2.8 160 14 102500 74
2001-10-29 08:37:08 51°13.688 2°55.906 2.6 152 14 102510 74
2001-10-29 08:37:13 51°13.688 2°55.906 1.9 161 14 102510 74
2001-10-29 08:37:18 51°13.688 2°55.906 1.7 157 14 102510 75
2001-10-29 08:37:23 51°13.688 2°55.906 2.3 160 14 102510 75
2001-10-29 08:37:27 51°13.688 2°55.906 2.1 161 14 102510 74
2001-10-29 08:37:33 51°13.688 2°55.906 2.6 143 14 102510 74
2001-10-29 08:37:38 51°13.687 2°55.906 2.7 148 14 102510 74
2001-10-29 08:37:43 51°13.687 2°55.906 2.5 145 14 102510 74
2001-10-29 08:37:47 51°13.687 2°55.906 1.9 137 14 102510 74
2001-10-29 08:37:53 51°13.687 2°55.906 3.1 139 14 102510 74
2001-10-29 08:37:58 51°13.687 2°55.906 3.9 137 14 102510 74
2001-10-29 08:38:03 51°13.687 2°55.906 3 141 14 102510 74
2001-10-29 08:38:08 51°13.687 2°55.906 2.3 145 14 102510 74
2001-10-29 08:38:13 51°13.687 2°55.906 2 149 14 102510 74
2001-10-29 08:38:18 51°13.687 2°55.906 2.1 156 14 102510 74
2001-10-29 08:38:23 51°13.687 2°55.906 2.1 167 14 102510 74
2001-10-29 08:38:28 51°13.687 2°55.906 2.2 160 14 102510 74
2001-10-29 08:38:33 51°13.687 2°55.906 3 173 14 102510 74
2001-10-29 08:38:38 51°13.687 2°55.906 2.6 172 14 102510 74
2001-10-29 08:38:43 51°13.687 2°55.906 3 146 14 102510 74
2001-10-29 08:38:48 51°13.687 2°55.906 2.8 143 14 102510 74
2001-10-29 08:38:53 51°13.687 2°55.906 2.5 128 14 102510 74
2001-10-29 08:38:58 51°13.687 2°55.906 2.8 137 14 102510 74
2001-10-29 08:39:03 51°13.687 2°55.906 3 142 14 102510 74
2001-10-29 08:39:07 51°13.687 2°55.906 2.9 154 14 102510 74
2001-10-29 08:39:13 51°13.687 2°55.906 2.9 139 14 102510 74
2001-10-29 08:39:18 51°13.687 2°55.906 2.6 160 14 102510 75
2001-10-29 08:39:23 51°13.687 2°55.906 1.9 166 14 102510 75
2001-10-29 08:39:27 51°13.687 2°55.906 3 177 14 102510 75
2001-10-29 08:39:34 51°13.687 2°55.906 3.9 174 14 102510 75
2001-10-29 08:39:38 51°13.687 2°55.906 4.3 162 14 102510 75
2001-10-29 08:39:43 51°13.687 2°55.906 4.4 144 14 102510 75
2001-10-29 08:39:48 51°13.687 2°55.906 3.7 150 14 102510 75
2001-10-29 08:39:53 51°13.687 2°55.906 3.8 156 14 102510 75
2001-10-29 08:39:58 51°13.687 2°55.906 4.5 155 14 102500 75
2001-10-29 08:40:03 51°13.687 2°55.906 3.5 157 14 102500 75
2001-10-29 08:40:08 51°13.687 2°55.906 4.4 152 14 102510 74
2001-10-29 08:40:13 51°13.687 2°55.906 3.9 168 14 102510 74
2001-10-29 08:40:18 51°13.687 2°55.906 3.8 167 14 102510 74
2001-10-29 08:40:23 51°13.687 2°55.905 5.3 141 14 102510 74
2001-10-29 08:40:28 51°13.687 2°55.906 4.6 142 14 102500 74
2001-10-29 08:40:34 51°13.687 2°55.906 4.3 143 14 102500 74
2001-10-29 08:40:38 51°13.687 2°55.906 3.3 141 14 102500 74
2001-10-29 08:40:43 51°13.687 2°55.906 3.8 133 14 102500 74
2001-10-29 08:40:48 51°13.687 2°55.905 5 134 14 102500 74
2001-10-29 08:40:53 51°13.687 2°55.905 5.6 142 14 102500 74
2001-10-29 08:40:58 51°13.687 2°55.905 4.6 141 14 102500 74
2001-10-29 08:41:03 51°13.687 2°55.905 4.4 149 14 102500 74
2001-10-29 08:41:08 51°13.687 2°55.905 4.6 148 14 102510 74
2001-10-29 08:41:13 51°13.687 2°55.905 3.5 173 14 102510 74
2001-10-29 08:41:18 51°13.687 2°55.905 3.8 146 14 102510 73
2001-10-29 08:41:23 51°13.688 2°55.905 3.9 119 14 102510 73
2001-10-29 08:41:27 51°13.688 2°55.905 4.1 139 14 102510 74
2001-10-29 08:41:33 51°13.688 2°55.905 4.3 149 14 102510 74
2001-10-29 08:41:38 51°13.688 2°55.906 4.8 155 14 102500 73
2001-10-29 08:41:43 51°13.688 2°55.906 4.9 169 14 102500 73
2001-10-29 08:41:48 51°13.688 2°55.906 4.9 162 14 102510 74
2001-10-29 08:41:53 51°13.688 2°55.906 5 153 14 102510 74
2001-10-29 08:41:58 51°13.687 2°55.906 5.9 145 14.1 102510 74
2001-10-29 08:42:03 51°13.687 2°55.906 5.1 149 14.1 102510 74
2001-10-29 08:42:08 51°13.687 2°55.906 5 137 14.1 102510 74
2001-10-29 08:42:13 51°13.687 2°55.906 5.1 152 14.1 102510 74
2001-10-29 08:42:18 51°13.687 2°55.906 5.2 143 14.1 102500 73
2001-10-29 08:42:23 51°13.687 2°55.906 6 152 14.1 102500 73
2001-10-29 08:42:28 51°13.688 2°55.906 5.2 155 14.1 102510 73
2001-10-29 08:42:33 51°13.688 2°55.906 6.2 141 14.1 102510 73
2001-10-29 08:42:38 51°13.687 2°55.906 5.5 140 14.1 102510 73
2001-10-29 08:42:43 51°13.687 2°55.906 4.3 155 14.1 102510 73
2001-10-29 08:42:48 51°13.687 2°55.906 4 141 14.1 102500 73
2001-10-29 08:42:53 51°13.687 2°55.906 3.9 139 14.1 102500 73
2001-10-29 08:42:58 51°13.687 2°55.906 4.2 140 14.1 102500 73
2001-10-29 08:43:03 51°13.687 2°55.906 4.3 132 14.1 102500 73
2001-10-29 08:43:08 51°13.687 2°55.906 4.1 150 14.1 102510 74
2001-10-29 08:43:13 51°13.687 2°55.906 3.8 146 14.1 102510 74
2001-10-29 08:43:18 51°13.687 2°55.906 4.2 148 14.1 102510 74
2001-10-29 08:43:23 51°13.687 2°55.906 3.6 155 14.1 102510 74
2001-10-29 08:43:27 51°13.687 2°55.906 3.4 144 14.1 102510 74
2001-10-29 08:43:33 51°13.687 2°55.906 4.1 160 14.1 102510 74
2001-10-29 08:43:38 51°13.687 2°55.906 4.1 183 14.1 102510 74
2001-10-29 08:43:43 51°13.687 2°55.906 4.6 165 14.1 102510 74
2001-10-29 08:43:48 51°13.687 2°55.906 4.4 170 14.1 102510 73
2001-10-29 08:43:53 51°13.687 2°55.906 4.4 151 14.1 102510 73
2001-10-29 08:43:58 51°13.687 2°55.906 3.7 148 14.1 102510 73
2001-10-29 08:44:03 51°13.687 2°55.906 4.8 145 14.1 102510 73
2001-10-29 08:44:08 51°13.687 2°55.906 4.5 140 14.1 102510 73
2001-10-29 08:44:13 51°13.688 2°55.906 5.4 146 14.1 102510 73
2001-10-29 08:44:18 51°13.688 2°55.906 4.4 152 14.1 102510 73
2001-10-29 08:44:23 51°13.688 2°55.906 4.3 153 14.1 102510 73
2001-10-29 08:44:27 51°13.688 2°55.906 5.7 142 14.1 102500 73
2001-10-29 08:44:33 51°13.688 2°55.906 3.8 149 14.1 102500 73
2001-10-29 08:44:38 51°13.688 2°55.906 5.1 141 14.2 102510 73
2001-10-29 08:44:43 51°13.688 2°55.906 4.8 151 14.2 102510 73
2001-10-29 08:44:49 51°13.688 2°55.906 5.1 164 14.2 102510 74
2001-10-29 08:44:53 51°13.688 2°55.906 4.9 146 14.2 102510 74
2001-10-29 08:44:58 51°13.688 2°55.906 5 148 14.2 102510 73
2001-10-29 08:45:03 51°13.688 2°55.906 4.1 144 14.2 102510 73
2001-10-29 08:45:08 51°13.688 2°55.906 4 145 14.2 102510 73
2001-10-29 08:45:14 51°13.688 2°55.906 4.7 139 14.2 102510 73
2001-10-29 08:45:18 51°13.688 2°55.906 6.1 138 14.2 102510 73
2001-10-29 08:45:23 51°13.687 2°55.906 4.8 134 14.2 102510 73
2001-10-29 08:45:28 51°13.687 2°55.906 4 141 14.2 102500 73
2001-10-29 08:45:33 51°13.687 2°55.906 3.6 134 14.2 102500 73
2001-10-29 08:45:38 51°13.687 2°55.906 3.9 134 14.2 102510 73
2001-10-29 08:45:43 51°13.687 2°55.906 4.7 142 14.2 102510 73
2001-10-29 08:45:47 51°13.687 2°55.906 4.8 139 14.2 102500 73
2001-10-29 08:45:53 51°13.687 2°55.906 5 148 14.2 102500 73
2001-10-29 08:45:58 51°13.687 2°55.906 6.6 146 14.2 102500 74
2001-10-29 08:46:03 51°13.687 2°55.906 5.8 137 14.2 102500 74
2001-10-29 08:46:07 51°13.687 2°55.907 4.7 140 14.2 102510 73
2001-10-29 08:46:13 51°13.687 2°55.907 4.9 129 14.2 102510 73
2001-10-29 08:46:18 51°13.687 2°55.907 4.7 128 14.2 102510 73
2001-10-29 08:46:23 51°13.687 2°55.907 6.1 125 14.2 102510 73
2001-10-29 08:46:28 51°13.687 2°55.907 4.9 125 14.2 102500 73
2001-10-29 08:46:33 51°13.686 2°55.906 3.2 137 14.2 102500 73
2001-10-29 08:46:38 51°13.686 2°55.906 4.5 127 14.2 102500 74
2001-10-29 08:46:43 51°13.686 2°55.906 3.8 142 14.2 102500 74
2001-10-29 08:46:48 51°13.686 2°55.906 3.9 152 14.2 102510 74
2001-10-29 08:46:53 51°13.686 2°55.906 3.5 131 14.2 102510 74
2001-10-29 08:46:58 51°13.685 2°55.906 3.3 125 14.2 102500 73
2001-10-29 08:47:03 51°13.685 2°55.906 6.1 125 14.2 102500 73
2001-10-29 08:47:08 51°13.685 2°55.905 5.8 127 14.2 102510 73
2001-10-29 08:47:13 51°13.685 2°55.905 5.2 111 14.2 102510 73
2001-10-29 08:47:18 51°13.685 2°55.905 4.8 124 14.2 102510 74
2001-10-29 08:47:23 51°13.685 2°55.905 4.6 141 14.2 102510 74
2001-10-29 08:47:27 51°13.685 2°55.904 5 136 14.2 102510 74
2001-10-29 08:47:34 51°13.686 2°55.903 5.4 128 14.2 102510 74
2001-10-29 08:47:38 51°13.686 2°55.902 5.5 130 14.2 102510 74
2001-10-29 08:47:43 51°13.686 2°55.9 5.1 128 14.2 102510 74
2001-10-29 08:47:48 51°13.687 2°55.897 4.8 115 14.2 102510 74
2001-10-29 08:47:53 51°13.687 2°55.895 4.8 132 14.2 102510 74
2001-10-29 08:47:58 51°13.688 2°55.892 4.8 130 14.2 102510 74
2001-10-29 08:48:04 51°13.688 2°55.887 4.5 121 14.2 102510 74
2001-10-29 08:48:09 51°13.689 2°55.884 5.2 126 14.2 102510 73
2001-10-29 08:48:14 51°13.69 2°55.879 5.8 131 14.2 102510 73
2001-10-29 08:48:19 51°13.69 2°55.874 4.8 130 14.3 102510 75
2001-10-29 08:48:24 51°13.691 2°55.868 5.2 119 14.3 102510 75
2001-10-29 08:48:29 51°13.691 2°55.863 4.8 125 14.3 102510 74
2001-10-29 08:48:34 51°13.692 2°55.856 6.9 125 14.3 102510 74
2001-10-29 08:48:39 51°13.692 2°55.85 6.2 127 14.3 102510 73
2001-10-29 08:48:44 51°13.692 2°55.843 5.2 129 14.3 102510 73
2001-10-29 08:48:49 51°13.693 2°55.836 4.1 115 14.3 102510 73
2001-10-29 08:48:54 51°13.693 2°55.829 4.6 133 14.3 102510 73
2001-10-29 08:48:59 51°13.693 2°55.823 4.6 128 14.3 102510 73
2001-10-29 08:49:04 51°13.693 2°55.816 4.3 119 14.3 102510 73
2001-10-29 08:49:09 51°13.694 2°55.81 4.4 116 14.3 102510 73
2001-10-29 08:49:14 51°13.694 2°55.803 3.2 115 14.3 102510 73
2001-10-29 08:49:19 51°13.694 2°55.797 4.2 109 14.3 102510 73
2001-10-29 08:49:24 51°13.693 2°55.791 3.5 129 14.3 102510 73
2001-10-29 08:49:28 51°13.693 2°55.786 4.2 106 14.3 102510 73
2001-10-29 08:49:33 51°13.693 2°55.78 3.5 133 14.3 102510 73
2001-10-29 08:49:38 51°13.692 2°55.775 4.7 132 14.3 102520 74
2001-10-29 08:49:43 51°13.692 2°55.769 4 83 14.3 102520 74
2001-10-29 08:49:48 51°13.691 2°55.764 8.3 89 14.3 102520 74
2001-10-29 08:49:53 51°13.691 2°55.759 5.1 71 14.3 102520 74
2001-10-29 08:49:58 51°13.69 2°55.754 6.3 84 14.3 102510 74
2001-10-29 08:50:03 51°13.689 2°55.75 5 101 14.3 102510 74
2001-10-29 08:50:07 51°13.689 2°55.747 3.8 93 14.3 102520 74
2001-10-29 08:50:13 51°13.688 2°55.742 4 124 14.3 102520 74
2001-10-29 08:50:18 51°13.687 2°55.738 4 126 14.3 102520 73
2001-10-29 08:50:23 51°13.687 2°55.734 4.1 102 14.3 102520 73
2001-10-29 08:50:28 51°13.686 2°55.731 2.9 120 14.3 102520 73
2001-10-29 08:50:33 51°13.686 2°55.729 1.3 115 14.3 102520 73
2001-10-29 08:50:38 51°13.686 2°55.728 2.8 52 14.3 102520 74
2001-10-29 08:50:43 51°13.687 2°55.729 2.5 57 14.3 102520 74
2001-10-29 08:50:47 51°13.688 2°55.729 2.5 55 14.3 102520 74
2001-10-29 08:50:53 51°13.689 2°55.731 2.2 72 14.3 102520 74
2001-10-29 08:50:58 51°13.691 2°55.733 2.2 69 14.3 102520 74
2001-10-29 08:51:03 51°13.694 2°55.734 2.4 61 14.3 102520 74
2001-10-29 08:51:08 51°13.697 2°55.736 2.9 74 14.4 102520 74
2001-10-29 08:51:13 51°13.701 2°55.737 1.1 27 14.4 102520 74
2001-10-29 08:51:18 51°13.704 2°55.737 1 20 14.4 102520 74
2001-10-29 08:51:23 51°13.708 2°55.736 0.6 343 14.4 102520 74
2001-10-29 08:51:28 51°13.713 2°55.735 1.7 347 14.4 102530 74
2001-10-29 08:51:33 51°13.717 2°55.733 2.1 352 14.4 102530 74
2001-10-29 08:51:38 51°13.722 2°55.73 1.6 31 14.3 102520 74
2001-10-29 08:51:43 51°13.727 2°55.726 3.1 352 14.3 102520 74
2001-10-29 08:51:47 51°13.731 2°55.722 2.5 351 14.4 102520 74
2001-10-29 08:51:53 51°13.738 2°55.716 4.3 354 14.4 102520 74
2001-10-29 08:51:58 51°13.744 2°55.71 3.3   14.4 102520 74
2001-10-29 08:52:03 51°13.75 2°55.704 4.6 353 14.4 102520 74
2001-10-29 08:52:08 51°13.757 2°55.698 4.5 303 14.4 102520 74
2001-10-29 08:52:13 51°13.764 2°55.691 3.6 328 14.4 102520 74
2001-10-29 08:52:18 51°13.771 2°55.683 5.2 320 14.4 102520 74
2001-10-29 08:52:23 51°13.779 2°55.676 4.5 335 14.4 102520 74
2001-10-29 08:52:28 51°13.787 2°55.668 5.1 342 14.4 102520 74
2001-10-29 08:52:33 51°13.795 2°55.661 3.8 329 14.4 102520 74
2001-10-29 08:52:38 51°13.803 2°55.653 3.4 305 14.4 102520 74
2001-10-29 08:52:43 51°13.812 2°55.645 6.6 338 14.4 102520 74
2001-10-29 08:52:47 51°13.819 2°55.639 8.3 335 14.4 102520 74
2001-10-29 08:52:53 51°13.831 2°55.629 6.9 339 14.4 102520 74
2001-10-29 08:52:58 51°13.841 2°55.621 7.4 317 14.4 102520 74
2001-10-29 08:53:03 51°13.851 2°55.613 5.8 357 14.4 102520 74
2001-10-29 08:53:08 51°13.862 2°55.604 5.2 326 14.4 102510 74
2001-10-29 08:53:13 51°13.873 2°55.596 11.4 338 14.4 102510 74
2001-10-29 08:53:18 51°13.884 2°55.587 5.5 345 14.4 102510 74
2001-10-29 08:53:23 51°13.896 2°55.579 8.5 339 14.4 102510 74
2001-10-29 08:53:28 51°13.908 2°55.57 7.4 326 14.4 102520 74
2001-10-29 08:53:33 51°13.92 2°55.562 9.8 336 14.4 102520 74
2001-10-29 08:53:38 51°13.932 2°55.554 10.1 325 14.4 102520 74
2001-10-29 08:53:43 51°13.944 2°55.545 6.7 335 14.4 102520 74
2001-10-29 08:53:48 51°13.956 2°55.537 4.8 336 14.4 102510 74
2001-10-29 08:53:53 51°13.969 2°55.528 7.6 326 14.4 102510 74
2001-10-29 08:53:58 51°13.981 2°55.519 6.4 294 14.4 102520 74
2001-10-29 08:54:03 51°13.993 2°55.51 6.9 332 14.4 102520 74
2001-10-29 08:54:07 51°14.003 2°55.503 6.7 318 14.4 102510 74
2001-10-29 08:54:13 51°14.018 2°55.493 8.2 325 14.4 102510 74
2001-10-29 08:54:18 51°14.031 2°55.484 8.9 318 14.4 102510 74
2001-10-29 08:54:23 51°14.043 2°55.475 9.9 329 14.4 102510 74
2001-10-29 08:54:28 51°14.056 2°55.466 10.4 325 14.5 102520 75
2001-10-29 08:54:34 51°14.07 2°55.456 8 310 14.5 102520 75
2001-10-29 08:54:38 51°14.081 2°55.449 10 305 14.5 102520 75
2001-10-29 08:54:43 51°14.094 2°55.441 9.5 327 14.5 102520 75
2001-10-29 08:54:48 51°14.106 2°55.432 9.9 318 14.5 102520 75
2001-10-29 08:54:53 51°14.119 2°55.423 9.9 318 14.5 102520 75
2001-10-29 08:54:58 51°14.131 2°55.413 14.8 334 14.5 102510 75
2001-10-29 08:55:03 51°14.143 2°55.404 6.4 335 14.5 102510 75
2001-10-29 08:55:07 51°14.153 2°55.396 8.4 336 14.5 102520 75
2001-10-29 08:55:13 51°14.167 2°55.382 7.4 334 14.5 102520 75
2001-10-29 08:55:18 51°14.179 2°55.371 9.2 335 14.5 102510 75
2001-10-29 08:55:23 51°14.19 2°55.359 9.8 345 14.5 102510 75
2001-10-29 08:55:28 51°14.201 2°55.347 15.2 336 14.5 102510 75
2001-10-29 08:55:33 51°14.212 2°55.334 14.9 328 14.5 102510 75
2001-10-29 08:55:38 51°14.222 2°55.32 15.1 338 14.5 102510 75
2001-10-29 08:55:43 51°14.232 2°55.306 13.3 335 14.5 102510 75
2001-10-29 08:55:48 51°14.242 2°55.292 10.8 332 14.5 102510 76
2001-10-29 08:55:53 51°14.252 2°55.277 12.6 324 14.5 102510 76
2001-10-29 08:55:58 51°14.262 2°55.262 16.3 338 14.5 102510 77
2001-10-29 08:56:03 51°14.271 2°55.246 16.5 333 14.5 102510 77
2001-10-29 08:56:08 51°14.28 2°55.229 17.2 329 14.5 102510 77
2001-10-29 08:56:13 51°14.289 2°55.213 15.1 332 14.5 102510 77
2001-10-29 08:56:18 51°14.298 2°55.196 15.2 324 14.5 102510 77
2001-10-29 08:56:23 51°14.306 2°55.179 14.8 329 14.5 102510 77
2001-10-29 08:56:28 51°14.315 2°55.162 12.3 330 14.5 102510 77
2001-10-29 08:56:33 51°14.324 2°55.145 17.9 320 14.5 102510 77
2001-10-29 08:56:38 51°14.332 2°55.128 17.8 329 14.5 102510 77
2001-10-29 08:56:43 51°14.341 2°55.111 18.6 332 14.5 102510 77
2001-10-29 08:56:48 51°14.349 2°55.094 18.3 329 14.5 102510 77
2001-10-29 08:56:53 51°14.358 2°55.077 17 330 14.5 102510 77
2001-10-29 08:56:58 51°14.367 2°55.06 18.6 327 14.5 102500 77
2001-10-29 08:57:03 51°14.376 2°55.044 17.7 327 14.5 102500 77
2001-10-29 08:57:07 51°14.385 2°55.032 16.7 333 14.5 102500 76
2001-10-29 08:57:13 51°14.397 2°55.016 16.5 330 14.5 102500 76
2001-10-29 08:57:18 51°14.408 2°55.002 19 329 14.5 102500 76
2001-10-29 08:57:23 51°14.417 2°54.987 15.6 329 14.5 102500 76
2001-10-29 08:57:28 51°14.426 2°54.971 16.8 319 14.5 102490 76
2001-10-29 08:57:34 51°14.434 2°54.95 17.9 315 14.5 102490 76
2001-10-29 08:57:38 51°14.439 2°54.936 17.3 317 14.5 102500 76
2001-10-29 08:57:43 51°14.443 2°54.917 15.5 311 14.5 102500 76
2001-10-29 08:57:48 51°14.447 2°54.898 16.6 304 14.5 102500 76
2001-10-29 08:57:54 51°14.45 2°54.875 15.5 305 14.5 102500 76
2001-10-29 08:57:58 51°14.451 2°54.859 15.8 306 14.5 102490 76
2001-10-29 08:58:03 51°14.452 2°54.839 16 302 14.5 102490 76
2001-10-29 08:58:09 51°14.453 2°54.814 15.8 303 14.5 102500 77
2001-10-29 08:58:13 51°14.453 2°54.798 16.3 302 14.5 102500 77
2001-10-29 08:58:18 51°14.452 2°54.777 16.4 303 14.5 102500 76
2001-10-29 08:58:23 51°14.452 2°54.757 16 297 14.5 102500 76
2001-10-29 08:58:28 51°14.451 2°54.736 16.2 299 14.5 102510 76
2001-10-29 08:58:33 51°14.45 2°54.714 15.3 300 14.5 102510 76
2001-10-29 08:58:38 51°14.449 2°54.693 15.7 296 14.5 102490 76
2001-10-29 08:58:43 51°14.448 2°54.672 18.5 299 14.5 102490 76
2001-10-29 08:58:48 51°14.447 2°54.651 18.9 296 14.5 102500 77
2001-10-29 08:58:53 51°14.446 2°54.629 16.5 296 14.5 102500 77
2001-10-29 08:58:58 51°14.444 2°54.608 17.2 297 14.5 102500 78
2001-10-29 08:59:03 51°14.443 2°54.587 16.2 295 14.5 102500 78
2001-10-29 08:59:08 51°14.442 2°54.565 16.6 302 14.5 102510 77
2001-10-29 08:59:13 51°14.44 2°54.544 16.3 299 14.5 102510 77
2001-10-29 08:59:18 51°14.439 2°54.523 17.2 301 14.5 102500 76
2001-10-29 08:59:23 51°14.437 2°54.501 18.1 296 14.5 102500 76
2001-10-29 08:59:27 51°14.436 2°54.484 17.9 295 14.5 102510 76
2001-10-29 08:59:33 51°14.433 2°54.459 19.3 298 14.5 102510 76
2001-10-29 08:59:38 51°14.431 2°54.438 17.6 297 14.5 102510 77
2001-10-29 08:59:43 51°14.429 2°54.416 20 300 14.5 102510 77
2001-10-29 08:59:48 51°14.427 2°54.395 18.5 300 14.5 102510 76
2001-10-29 08:59:54 51°14.425 2°54.37 17 298 14.5 102510 76
2001-10-29 08:59:58 51°14.423 2°54.353 18.2 293 14.5 102510 76
2001-10-29 09:00:03 51°14.42 2°54.332 17.1 300 14.5 102510 76
2001-10-29 09:00:07 51°14.419 2°54.315 16.4 298 14.5 102510 75
2001-10-29 09:00:13 51°14.416 2°54.29 16.6 294 14.5 102510 75
2001-10-29 09:00:18 51°14.413 2°54.269 17.2 293 14.5 102510 74
2001-10-29 09:00:23 51°14.41 2°54.248 16.4 297 14.5 102510 74
2001-10-29 09:00:28 51°14.408 2°54.228 18.7 299 14.5 102500 75
2001-10-29 09:00:33 51°14.405 2°54.206 17.9 296 14.5 102500 75
2001-10-29 09:00:38 51°14.403 2°54.184 18.5 296 14.5 102510 74
2001-10-29 09:00:43 51°14.4 2°54.162 18.2 293 14.5 102510 74
2001-10-29 09:00:48 51°14.398 2°54.14 17.4 295 14.5 102510 75
2001-10-29 09:00:53 51°14.396 2°54.118 16.9 293 14.5 102510 75
2001-10-29 09:00:58 51°14.394 2°54.096 15.8 293 14.5 102500 74
2001-10-29 09:01:03 51°14.391 2°54.073 18.3 291 14.5 102500 74
2001-10-29 09:01:08 51°14.388 2°54.051 18.2 291 14.5 102510 75
2001-10-29 09:01:13 51°14.382 2°54.029 16.3 287 14.5 102510 75
2001-10-29 09:01:18 51°14.376 2°54.009 15.1 289 14.5 102510 75
2001-10-29 09:01:23 51°14.369 2°53.988 15.2 288 14.5 102510 75
2001-10-29 09:01:28 51°14.362 2°53.968 15.9 288 14.5 102510 74
2001-10-29 09:01:33 51°14.354 2°53.948 16.2 283 14.5 102510 74
2001-10-29 09:01:38 51°14.347 2°53.927 17.2 285 14.5 102500 75
2001-10-29 09:01:43 51°14.339 2°53.907 16 290 14.5 102500 75
2001-10-29 09:01:48 51°14.331 2°53.886 14.8 285 14.5 102500 76
2001-10-29 09:01:53 51°14.323 2°53.866 16.2 288 14.5 102500 76
2001-10-29 09:01:58 51°14.314 2°53.846 16.3 284 14.5 102500 75
2001-10-29 09:02:03 51°14.306 2°53.825 15.8 289 14.5 102500 75
2001-10-29 09:02:09 51°14.296 2°53.799 16.5 284 14.5 102500 75
2001-10-29 09:02:13 51°14.289 2°53.782 17 284 14.5 102500 75
2001-10-29 09:02:18 51°14.281 2°53.761 16.2 282 14.5 102500 76
2001-10-29 09:02:23 51°14.272 2°53.74 16.1 280 14.5 102500 76
2001-10-29 09:02:28 51°14.264 2°53.719 15.9 284 14.5 102500 76
2001-10-29 09:02:33 51°14.256 2°53.698 15.6 287 14.5 102500 76
2001-10-29 09:02:38 51°14.247 2°53.677 16.6 286 14.5 102500 75
2001-10-29 09:02:43 51°14.239 2°53.655 17 283 14.5 102500 75
2001-10-29 09:02:48 51°14.231 2°53.633 16.2 285 14.5 102510 76
2001-10-29 09:02:53 51°14.222 2°53.612 16.3 288 14.5 102510 76
2001-10-29 09:02:58 51°14.214 2°53.59 17.3 285 14.6 102500 76
2001-10-29 09:03:03 51°14.206 2°53.568 17.6 289 14.6 102500 76
2001-10-29 09:03:09 51°14.197 2°53.54 17.9 288 14.5 102510 76
2001-10-29 09:03:13 51°14.19 2°53.522 17.8 285 14.5 102510 76
2001-10-29 09:03:18 51°14.183 2°53.499 17.2 287 14.5 102500 76
2001-10-29 09:03:23 51°14.175 2°53.476 17.6 285 14.5 102500 76
2001-10-29 09:03:28 51°14.168 2°53.453 16.2 285 14.5 102500 75
2001-10-29 09:03:33 51°14.159 2°53.431 17.1 285 14.5 102500 75
2001-10-29 09:03:38 51°14.15 2°53.409 18 285 14.5 102500 76
2001-10-29 09:03:43 51°14.141 2°53.387 18.2 285 14.5 102500 76
2001-10-29 09:03:48 51°14.132 2°53.364 17.5 284 14.5 102510 76
2001-10-29 09:03:54 51°14.122 2°53.337 17.7 282 14.5 102510 76
2001-10-29 09:03:58 51°14.115 2°53.318 16.5 283 14.5 102490 76
2001-10-29 09:04:03 51°14.106 2°53.296 16.3 283 14.5 102490 76
2001-10-29 09:04:08 51°14.098 2°53.273 15.7 285 14.6 102510 76
2001-10-29 09:04:13 51°14.088 2°53.252 16.5 286 14.6 102510 76
2001-10-29 09:04:18 51°14.079 2°53.229 17.2 287 14.5 102510 76
2001-10-29 09:04:23 51°14.07 2°53.207 16.4 282 14.5 102510 76
2001-10-29 09:04:28 51°14.063 2°53.184 15.3 287 14.5 102500 76
2001-10-29 09:04:33 51°14.055 2°53.161 16.5 284 14.5 102500 76
2001-10-29 09:04:38 51°14.047 2°53.137 16 287 14.5 102510 76
2001-10-29 09:04:43 51°14.038 2°53.114 17.6 286 14.5 102510 76
2001-10-29 09:04:48 51°14.03 2°53.091 17.6 286 14.6 102500 77
2001-10-29 09:04:53 51°14.021 2°53.069 16.9 284 14.6 102500 77
2001-10-29 09:04:58 51°14.013 2°53.046 16.3 282 14.6 102510 77
2001-10-29 09:05:03 51°14.004 2°53.024 17.1 282 14.6 102510 77
2001-10-29 09:05:08 51°13.995 2°53.001 16.1 277 14.6 102500 77
2001-10-29 09:05:13 51°13.985 2°52.98 17 276 14.6 102500 77
2001-10-29 09:05:18 51°13.976 2°52.958 17.1 278 14.6 102500 77
2001-10-29 09:05:23 51°13.966 2°52.937 16.3 283 14.6 102500 77
2001-10-29 09:05:28 51°13.957 2°52.915 18.1 288 14.6 102490 76
2001-10-29 09:05:33 51°13.948 2°52.892 18.5 292 14.6 102490 76
2001-10-29 09:05:38 51°13.94 2°52.868 17 288 14.6 102490 77
2001-10-29 09:05:43 51°13.933 2°52.845 19 289 14.6 102490 77
2001-10-29 09:05:48 51°13.926 2°52.821 19 288 14.6 102490 77
2001-10-29 09:05:53 51°13.919 2°52.797 17 284 14.6 102490 77
2001-10-29 09:05:58 51°13.912 2°52.773 17 283 14.6 102480 76
2001-10-29 09:06:03 51°13.903 2°52.751 18.8 284 14.6 102480 76
2001-10-29 09:06:08 51°13.895 2°52.728 18 282 14.6 102480 75
2001-10-29 09:06:14 51°13.884 2°52.702 18 283 14.6 102480 75
2001-10-29 09:06:18 51°13.877 2°52.684 16.6 288 14.5 102490 74
2001-10-29 09:06:23 51°13.868 2°52.661 18.5 285 14.5 102490 74
2001-10-29 09:06:28 51°13.859 2°52.639 18 282 14.5 102480 74
2001-10-29 09:06:33 51°13.852 2°52.616 19.2 285 14.5 102480 74
2001-10-29 09:06:38 51°13.843 2°52.594 19.7 288 14.5 102460 74
2001-10-29 09:06:43 51°13.836 2°52.57 18.4 285 14.5 102460 74
2001-10-29 09:06:48 51°13.827 2°52.548 18.1 281 14.5 102480 75
2001-10-29 09:06:53 51°13.818 2°52.526 17.2 281 14.5 102480 75
2001-10-29 09:06:58 51°13.81 2°52.503 16.8 288 14.5 102480 74
2001-10-29 09:07:03 51°13.8 2°52.481 19.3 278 14.5 102480 74
2001-10-29 09:07:08 51°13.792 2°52.458 19.1 282 14.5 102480 73
2001-10-29 09:07:13 51°13.784 2°52.435 17.9 285 14.5 102480 73
2001-10-29 09:07:18 51°13.776 2°52.412 19.2 284 14.6 102480 74
2001-10-29 09:07:23 51°13.768 2°52.389 19 285 14.6 102480 74
2001-10-29 09:07:28 51°13.76 2°52.366 18.7 281 14.6 102480 73
2001-10-29 09:07:33 51°13.751 2°52.343 19.7 284 14.6 102480 73
2001-10-29 09:07:38 51°13.743 2°52.32 18.3 287 14.6 102480 73
2001-10-29 09:07:43 51°13.734 2°52.298 18.4 278 14.6 102480 73
2001-10-29 09:07:48 51°13.726 2°52.275 19.3 284 14.5 102470 73
2001-10-29 09:07:53 51°13.717 2°52.253 18.1 284 14.5 102470 73
2001-10-29 09:07:58 51°13.708 2°52.231 18.1 283 14.6 102470 73
2001-10-29 09:08:03 51°13.7 2°52.208 18.2 283 14.6 102470 73
2001-10-29 09:08:08 51°13.691 2°52.186 18.8 286 14.6 102470 73
2001-10-29 09:08:13 51°13.684 2°52.162 17.9 287 14.6 102470 73
2001-10-29 09:08:18 51°13.676 2°52.139 17 284 14.6 102470 73
2001-10-29 09:08:23 51°13.668 2°52.116 18 286 14.6 102470 73
2001-10-29 09:08:28 51°13.66 2°52.093 16.5 282 14.6 102470 73
2001-10-29 09:08:34 51°13.651 2°52.065 18.6 282 14.6 102470 73
2001-10-29 09:08:38 51°13.643 2°52.048 18.3 284 14.6 102490 74
2001-10-29 09:08:43 51°13.635 2°52.025 18.6 281 14.6 102490 74
2001-10-29 09:08:48 51°13.626 2°52.003 18.7 280 14.6 102480 74
2001-10-29 09:08:53 51°13.617 2°51.981 19 281 14.6 102480 74
2001-10-29 09:08:58 51°13.607 2°51.959 18.6 277 14.6 102470 73
2001-10-29 09:09:03 51°13.598 2°51.937 16.3 281 14.6 102470 73
2001-10-29 09:09:08 51°13.589 2°51.915 16.6 282 14.6 102480 73
2001-10-29 09:09:13 51°13.581 2°51.893 17 282 14.6 102480 73
2001-10-29 09:09:18 51°13.572 2°51.87 17.9 283 14.6 102480 72
2001-10-29 09:09:23 51°13.565 2°51.846 16.2 281 14.6 102480 72
2001-10-29 09:09:28 51°13.556 2°51.824 15.5 282 14.6 102470 73
2001-10-29 09:09:34 51°13.546 2°51.797 16 281 14.6 102470 73
2001-10-29 09:09:38 51°13.538 2°51.779 17.1 279 14.6 102480 73
2001-10-29 09:09:43 51°13.529 2°51.758 16.8 281 14.6 102480 73
2001-10-29 09:09:48 51°13.519 2°51.737 16.9 285 14.6 102470 74
2001-10-29 09:09:53 51°13.509 2°51.715 16.2 282 14.6 102470 74
2001-10-29 09:09:58 51°13.5 2°51.693 16.6 281 14.6 102490 74
2001-10-29 09:10:03 51°13.492 2°51.67 16.5 289 14.6 102490 74
2001-10-29 09:10:08 51°13.483 2°51.647 15.8 286 14.6 102480 75
2001-10-29 09:10:13 51°13.477 2°51.623 19.3 287 14.6 102480 75
2001-10-29 09:10:18 51°13.469 2°51.6 18.8 284 14.6 102480 75
2001-10-29 09:10:23 51°13.462 2°51.576 17 284 14.6 102480 75
2001-10-29 09:10:28 51°13.454 2°51.553 17.8 283 14.6 102510 75
2001-10-29 09:10:33 51°13.446 2°51.53 18.4 283 14.6 102510 75
2001-10-29 09:10:38 51°13.438 2°51.507 18.3 283 14.6 102500 74
2001-10-29 09:10:43 51°13.43 2°51.483 17.4 282 14.6 102500 74
2001-10-29 09:10:48 51°13.422 2°51.46 16.7 283 14.6 102500 74
2001-10-29 09:10:53 51°13.415 2°51.437 19.1 285 14.6 102500 74
2001-10-29 09:10:58 51°13.407 2°51.414 19.3 284 14.6 102500 74
2001-10-29 09:11:03 51°13.4 2°51.39 18.4 283 14.6 102500 74
2001-10-29 09:11:08 51°13.391 2°51.367 18.3 283 14.6 102490 74
2001-10-29 09:11:13 51°13.384 2°51.344 17.3 285 14.6 102490 74
2001-10-29 09:11:18 51°13.376 2°51.321 16.8 286 14.6 102500 74
2001-10-29 09:11:23 51°13.368 2°51.297 18.3 286 14.6 102500 74
2001-10-29 09:11:28 51°13.361 2°51.274 18.3 286 14.6 102490 74
2001-10-29 09:11:33 51°13.353 2°51.251 17.2 289 14.6 102490 74
2001-10-29 09:11:38 51°13.345 2°51.228 17.1 288 14.6 102500 74
2001-10-29 09:11:43 51°13.338 2°51.204 17.3 285 14.6 102500 74
2001-10-29 09:11:48 51°13.33 2°51.181 16.8 287 14.6 102500 74
2001-10-29 09:11:53 51°13.322 2°51.158 16.4 283 14.6 102500 74
2001-10-29 09:11:58 51°13.313 2°51.136 17.5 284 14.6 102490 74
2001-10-29 09:12:03 51°13.304 2°51.114 17 287 14.6 102490 74
2001-10-29 09:12:08 51°13.294 2°51.093 16.8 286 14.6 102500 75
2001-10-29 09:12:13 51°13.285 2°51.071 17.5 285 14.6 102500 75
2001-10-29 09:12:18 51°13.276 2°51.049 17.8 288 14.6 102490 75
2001-10-29 09:12:23 51°13.269 2°51.026 17.1 283 14.6 102490 75
2001-10-29 09:12:28 51°13.26 2°51.003 17.1 285 14.6 102500 75
2001-10-29 09:12:33 51°13.253 2°50.98 17.2 283 14.6 102500 75
2001-10-29 09:12:38 51°13.244 2°50.957 16.4 284 14.6 102510 74
2001-10-29 09:12:43 51°13.236 2°50.934 19 287 14.6 102510 74
2001-10-29 09:12:48 51°13.228 2°50.912 17.8 282 14.6 102500 74
2001-10-29 09:12:53 51°13.22 2°50.889 17.8 281 14.6 102500 74
2001-10-29 09:12:58 51°13.212 2°50.866 19.1 285 14.6 102520 74
2001-10-29 09:13:03 51°13.203 2°50.843 16.3 286 14.6 102520 74
2001-10-29 09:13:08 51°13.195 2°50.82 16.9 285 14.6 102500 75
2001-10-29 09:13:14 51°13.185 2°50.793 16.5 288 14.6 102500 75
2001-10-29 09:13:18 51°13.178 2°50.775 16.7 285 14.6 102510 74
2001-10-29 09:13:23 51°13.17 2°50.753 18.1 290 14.6 102510 74
2001-10-29 09:13:28 51°13.16 2°50.731 17.3 285 14.6 102500 73
2001-10-29 09:13:33 51°13.152 2°50.709 18.1 284 14.6 102500 73
2001-10-29 09:13:38 51°13.143 2°50.687 18.3 280 14.6 102500 74
2001-10-29 09:13:43 51°13.134 2°50.665 16.7 283 14.6 102500 74
2001-10-29 09:13:48 51°13.127 2°50.641 16.3 289 14.6 102510 75
2001-10-29 09:13:54 51°13.118 2°50.613 17.7 283 14.6 102510 75
2001-10-29 09:13:58 51°13.113 2°50.594 16.4 288 14.6 102500 74
2001-10-29 09:14:03 51°13.106 2°50.571 16.1 287 14.6 102500 74
2001-10-29 09:14:08 51°13.099 2°50.548 16 287 14.6 102500 74
2001-10-29 09:14:13 51°13.09 2°50.526 16.3 282 14.6 102500 74
2001-10-29 09:14:18 51°13.083 2°50.503 14.8 288 14.6 102490 74
2001-10-29 09:14:23 51°13.074 2°50.481 19.3 287 14.6 102490 74
2001-10-29 09:14:29 51°13.064 2°50.454 17.7 285 14.6 102510 75
2001-10-29 09:14:33 51°13.057 2°50.437 17.3 281 14.6 102510 75
2001-10-29 09:14:38 51°13.048 2°50.414 16.5 281 14.6 102510 76
2001-10-29 09:14:43 51°13.039 2°50.393 16.8 282 14.6 102510 76
2001-10-29 09:14:48 51°13.029 2°50.372 16.9 285 14.7 102500 75
2001-10-29 09:14:53 51°13.019 2°50.351 17.1 288 14.7 102500 75
2001-10-29 09:14:58 51°13.011 2°50.329 16.3 284 14.6 102500 74
2001-10-29 09:15:03 51°13.002 2°50.306 17.7 283 14.6 102500 74
2001-10-29 09:15:08 51°12.994 2°50.283 17.8 286 14.6 102500 75
2001-10-29 09:15:13 51°12.987 2°50.259 17.8 285 14.6 102500 75
2001-10-29 09:15:18 51°12.979 2°50.237 17.3 286 14.7 102500 75
2001-10-29 09:15:23 51°12.971 2°50.214 17.1 282 14.7 102500 75
2001-10-29 09:15:28 51°12.962 2°50.192 17 287 14.6 102510 75
2001-10-29 09:15:33 51°12.953 2°50.169 16.7 279 14.6 102510 75
2001-10-29 09:15:38 51°12.944 2°50.148 16.6 283 14.7 102500 75
2001-10-29 09:15:43 51°12.936 2°50.125 16.7 285 14.7 102500 75
2001-10-29 09:15:48 51°12.928 2°50.102 16.9 283 14.7 102490 75
2001-10-29 09:15:53 51°12.919 2°50.08 17.6 281 14.7 102490 75
2001-10-29 09:15:58 51°12.911 2°50.057 16.8 280 14.7 102490 75
2001-10-29 09:16:03 51°12.901 2°50.036 17.8 283 14.7 102490 75
2001-10-29 09:16:08 51°12.893 2°50.013 16.7 281 14.7 102500 76
2001-10-29 09:16:13 51°12.884 2°49.991 18.2 286 14.7 102500 76
2001-10-29 09:16:18 51°12.876 2°49.968 17.9 284 14.6 102480 74
2001-10-29 09:16:23 51°12.867 2°49.945 17.5 283 14.6 102480 74
2001-10-29 09:16:28 51°12.859 2°49.923 17 284 14.6 102500 74
2001-10-29 09:16:33 51°12.851 2°49.9 16.9 280 14.6 102500 74
2001-10-29 09:16:38 51°12.842 2°49.877 15.4 283 14.6 102500 75
2001-10-29 09:16:43 51°12.833 2°49.855 17.4 282 14.6 102500 75
2001-10-29 09:16:48 51°12.825 2°49.833 16.1 284 14.6 102490 74
2001-10-29 09:16:53 51°12.815 2°49.811 16.7 283 14.6 102490 74
2001-10-29 09:16:58 51°12.806 2°49.789 15.8 287 14.6 102490 75
2001-10-29 09:17:03 51°12.798 2°49.766 16.4 284 14.6 102490 75
2001-10-29 09:17:09 51°12.788 2°49.739 16.8 281 14.6 102500 75
2001-10-29 09:17:13 51°12.782 2°49.72 18.1 289 14.6 102500 75
2001-10-29 09:17:18 51°12.773 2°49.698 17.7 290 14.7 102500 76
2001-10-29 09:17:23 51°12.765 2°49.675 18.6 284 14.7 102500 76
2001-10-29 09:17:28 51°12.756 2°49.653 18 284 14.6 102490 76
2001-10-29 09:17:33 51°12.747 2°49.631 17.6 280 14.6 102490 76
2001-10-29 09:17:38 51°12.739 2°49.609 16.6 283 14.7 102490 75
2001-10-29 09:17:43 51°12.73 2°49.587 17.1 279 14.7 102490 75
2001-10-29 09:17:48 51°12.721 2°49.565 16.2 283 14.6 102500 74
2001-10-29 09:17:53 51°12.712 2°49.543 16 281 14.6 102500 74
2001-10-29 09:17:58 51°12.704 2°49.52 18.3 280 14.6 102500 74
2001-10-29 09:18:03 51°12.694 2°49.499 16.9 279 14.6 102500 74
2001-10-29 09:18:09 51°12.684 2°49.472 18.2 283 14.6 102490 75
2001-10-29 09:18:13 51°12.677 2°49.454 18.3 285 14.6 102490 75
2001-10-29 09:18:18 51°12.67 2°49.431 18.6 286 14.7 102500 75
2001-10-29 09:18:23 51°12.663 2°49.408 16.9 286 14.7 102500 75
2001-10-29 09:18:28 51°12.655 2°49.385 17.6 286 14.7 102480 75
2001-10-29 09:18:33 51°12.648 2°49.362 18.2 282 14.7 102480 75
2001-10-29 09:18:38 51°12.638 2°49.341 18.1 281 14.7 102490 74
2001-10-29 09:18:43 51°12.63 2°49.318 17 283 14.7 102490 74
2001-10-29 09:18:49 51°12.62 2°49.292 16.3 284 14.7 102490 75
2001-10-29 09:18:53 51°12.614 2°49.273 17.9 283 14.7 102490 75
2001-10-29 09:18:58 51°12.605 2°49.251 18.2 285 14.7 102500 75
2001-10-29 09:19:03 51°12.597 2°49.228 18.6 285 14.7 102500 75
2001-10-29 09:19:08 51°12.589 2°49.206 17.2 285 14.6 102500 74
2001-10-29 09:19:13 51°12.581 2°49.182 19.1 284 14.6 102500 74
2001-10-29 09:19:18 51°12.573 2°49.16 18.1 281 14.7 102500 75
2001-10-29 09:19:23 51°12.565 2°49.138 15.4 283 14.7 102500 75
2001-10-29 09:19:28 51°12.556 2°49.116 15.7 283 14.6 102490 74
2001-10-29 09:19:34 51°12.546 2°49.089 16.9 276 14.6 102490 74
2001-10-29 09:19:38 51°12.539 2°49.071 16.4 283 14.7 102500 74
2001-10-29 09:19:43 51°12.53 2°49.049 16.6 278 14.7 102500 74
2001-10-29 09:19:48 51°12.523 2°49.026 16.8 283 14.7 102490 74
2001-10-29 09:19:53 51°12.514 2°49.004 16.5 279 14.7 102490 74
2001-10-29 09:19:58 51°12.506 2°48.981 16 285 14.7 102500 74
2001-10-29 09:20:03 51°12.498 2°48.959 15.1 277 14.7 102500 74
2001-10-29 09:20:08 51°12.489 2°48.937 15.8 279 14.7 102490 74
2001-10-29 09:20:14 51°12.478 2°48.911 16.7 280 14.7 102490 74
2001-10-29 09:20:18 51°12.471 2°48.893 17 277 14.7 102490 75
2001-10-29 09:20:23 51°12.463 2°48.87 17.8 285 14.7 102490 75
2001-10-29 09:20:28 51°12.455 2°48.847 18.3 285 14.7 102480 75
2001-10-29 09:20:33 51°12.447 2°48.824 17.8 285 14.7 102480 75
2001-10-29 09:20:38 51°12.438 2°48.802 18.1 278 14.7 102490 75
2001-10-29 09:20:43 51°12.43 2°48.78 15.9 283 14.7 102490 75
2001-10-29 09:20:49 51°12.419 2°48.755 15.7 284 14.7 102490 75
2001-10-29 09:20:53 51°12.411 2°48.737 16.2 283 14.7 102490 75
2001-10-29 09:20:58 51°12.403 2°48.715 15.2 287 14.7 102480 75
2001-10-29 09:21:03 51°12.394 2°48.693 18.4 285 14.7 102480 75
2001-10-29 09:21:08 51°12.386 2°48.67 16.9 283 14.7 102490 75
2001-10-29 09:21:13 51°12.377 2°48.649 17.5 281 14.7 102490 75
2001-10-29 09:21:18 51°12.368 2°48.627 17.5 283 14.7 102490 76
2001-10-29 09:21:24 51°12.357 2°48.602 17 280 14.7 102490 76
2001-10-29 09:21:28 51°12.349 2°48.585 16.9 279 14.7 102490 76
2001-10-29 09:21:33 51°12.339 2°48.564 16 281 14.7 102490 76
2001-10-29 09:21:38 51°12.331 2°48.542 15.5 282 14.7 102490 75
2001-10-29 09:21:43 51°12.322 2°48.52 15.6 279 14.7 102490 75
2001-10-29 09:21:48 51°12.315 2°48.496 16.5 285 14.7 102480 75
2001-10-29 09:21:54 51°12.305 2°48.47 17.4 283 14.7 102480 75
2001-10-29 09:21:58 51°12.299 2°48.452 16.9 276 14.7 102490 75
2001-10-29 09:22:03 51°12.289 2°48.43 16.7 279 14.7 102490 75
2001-10-29 09:22:08 51°12.28 2°48.409 15.9 282 14.7 102490 76
2001-10-29 09:22:13 51°12.27 2°48.388 18.4 279 14.7 102490 76
2001-10-29 09:22:18 51°12.262 2°48.366 17.2 285 14.7 102480 75
2001-10-29 09:22:23 51°12.252 2°48.345 17.8 285 14.7 102480 75
2001-10-29 09:22:28 51°12.245 2°48.322 16.7 284 14.7 102490 75
2001-10-29 09:22:33 51°12.236 2°48.301 17.1 278 14.7 102490 75
2001-10-29 09:22:38 51°12.227 2°48.279 16.6 272 14.7 102490 76
2001-10-29 09:22:43 51°12.218 2°48.258 16.5 277 14.7 102490 76
2001-10-29 09:22:48 51°12.209 2°48.236 16.6 283 14.7 102490 76
2001-10-29 09:22:53 51°12.201 2°48.214 17.5 285 14.7 102490 76
2001-10-29 09:22:58 51°12.193 2°48.191 16.8 281 14.7 102500 74
2001-10-29 09:23:03 51°12.186 2°48.168 19.4 285 14.7 102500 74
2001-10-29 09:23:08 51°12.179 2°48.145 19 283 14.7 102490 75
2001-10-29 09:23:13 51°12.171 2°48.122 18.9 280 14.7 102490 75
2001-10-29 09:23:18 51°12.164 2°48.099 18.6 277 14.7 102490 76
2001-10-29 09:23:23 51°12.155 2°48.077 17.8 282 14.7 102490 76
2001-10-29 09:23:28 51°12.147 2°48.055 19.1 283 14.7 102490 74
2001-10-29 09:23:33 51°12.139 2°48.032 18 281 14.7 102490 74
2001-10-29 09:23:38 51°12.131 2°48.01 18.1 285 14.7 102460 74
2001-10-29 09:23:43 51°12.123 2°47.988 18 283 14.7 102460 74
2001-10-29 09:23:48 51°12.115 2°47.965 17.9 284 14.7 102470 74
2001-10-29 09:23:53 51°12.107 2°47.943 17.8 282 14.7 102470 74
2001-10-29 09:23:58 51°12.099 2°47.92 17.2 283 14.7 102470 74
2001-10-29 09:24:03 51°12.091 2°47.898 16.6 281 14.7 102470 74
2001-10-29 09:24:08 51°12.084 2°47.875 16.7 285 14.7 102490 74
2001-10-29 09:24:13 51°12.077 2°47.852 19.2 284 14.7 102490 74
2001-10-29 09:24:18 51°12.069 2°47.829 19.8 283 14.7 102490 74
2001-10-29 09:24:23 51°12.062 2°47.806 18.3 285 14.7 102490 74
2001-10-29 09:24:28 51°12.053 2°47.785 18.4 278 14.7 102490 75
2001-10-29 09:24:33 51°12.045 2°47.763 17.1 276 14.7 102490 75
2001-10-29 09:24:38 51°12.036 2°47.742 17.1 275 14.7 102490 75
2001-10-29 09:24:43 51°12.027 2°47.72 16.1 278 14.7 102490 75
2001-10-29 09:24:48 51°12.019 2°47.698 16.3 281 14.7 102480 74
2001-10-29 09:24:53 51°12.01 2°47.676 17.9 286 14.7 102480 74
2001-10-29 09:24:58 51°12.003 2°47.653 17.7 283 14.7 102480 74
2001-10-29 09:25:03 51°11.996 2°47.63 17.7 288 14.7 102480 74
2001-10-29 09:25:08 51°11.989 2°47.607 16.7 282 14.7 102480 74
2001-10-29 09:25:13 51°11.982 2°47.583 19.3 283 14.7 102480 74
2001-10-29 09:25:18 51°11.975 2°47.561 18.8 286 14.7 102490 75
2001-10-29 09:25:23 51°11.967 2°47.538 18.3 284 14.7 102490 75
2001-10-29 09:25:28 51°11.959 2°47.515 19.7 282 14.7 102490 75
2001-10-29 09:25:33 51°11.951 2°47.493 18.7 277 14.7 102490 75
2001-10-29 09:25:38 51°11.943 2°47.471 18.2 271 14.7 102470 75
2001-10-29 09:25:43 51°11.933 2°47.45 17.3 273 14.7 102470 75
2001-10-29 09:25:49 51°11.922 2°47.425 16.1 271 14.7 102490 74
2001-10-29 09:25:53 51°11.914 2°47.408 16.5 276 14.7 102490 74
2001-10-29 09:25:58 51°11.905 2°47.387 16.9 277 14.7 102480 73
2001-10-29 09:26:03 51°11.897 2°47.365 17.3 278 14.7 102480 73
2001-10-29 09:26:08 51°11.889 2°47.342 16.4 275 14.7 102480 74
2001-10-29 09:26:13 51°11.88 2°47.32 16.3 278 14.7 102480 74
2001-10-29 09:26:18 51°11.872 2°47.298 16.5 280 14.8 102480 75
2001-10-29 09:26:23 51°11.864 2°47.275 16.5 280 14.8 102480 75
2001-10-29 09:26:29 51°11.854 2°47.249 17.7 281 14.8 102480 75
2001-10-29 09:26:34 51°11.845 2°47.227 20 283 14.8 102480 75
2001-10-29 09:26:38 51°11.838 2°47.21 19.5 282 14.8 102490 75
2001-10-29 09:26:43 51°11.83 2°47.187 18.7 285 14.8 102490 75
2001-10-29 09:26:48 51°11.822 2°47.164 19.2 286 14.8 102480 75
2001-10-29 09:26:53 51°11.816 2°47.14 18.4 286 14.8 102480 75
2001-10-29 09:26:58 51°11.809 2°47.117 19.4 283 14.7 102480 74
2001-10-29 09:27:03 51°11.802 2°47.093 18.5 278 14.7 102480 74
2001-10-29 09:27:09 51°11.794 2°47.066 17.3 276 14.7 102470 73
2001-10-29 09:27:14 51°11.786 2°47.042 16.8 279 14.7 102470 73
2001-10-29 09:27:18 51°11.78 2°47.024 16.7 280 14.7 102490 73
2001-10-29 09:27:23 51°11.773 2°47.001 17.1 286 14.7 102490 73
2001-10-29 09:27:28 51°11.765 2°46.979 16.4 277 14.7 102470 74
2001-10-29 09:27:34 51°11.756 2°46.951 17.8 283 14.7 102470 74
2001-10-29 09:27:38 51°11.749 2°46.932 17.1 276 14.7 102470 74
2001-10-29 09:27:43 51°11.741 2°46.91 18.2 272 14.7 102470 74
2001-10-29 09:27:49 51°11.731 2°46.883 16.9 272 14.7 102480 74
2001-10-29 09:27:53 51°11.725 2°46.865 15.8 278 14.7 102480 74
2001-10-29 09:27:58 51°11.716 2°46.843 17.3 272 14.7 102480 74
2001-10-29 09:28:03 51°11.708 2°46.82 15.1 280 14.7 102480 74
2001-10-29 09:28:08 51°11.7 2°46.797 15.6 281 14.7 102470 73
2001-10-29 09:28:13 51°11.692 2°46.774 17.7 277 14.7 102470 73
2001-10-29 09:28:18 51°11.685 2°46.752 17.7 284 14.7 102490 75
2001-10-29 09:28:23 51°11.677 2°46.729 15.3 282 14.7 102490 75
2001-10-29 09:28:28 51°11.669 2°46.706 17.8 288 14.8 102480 76
2001-10-29 09:28:33 51°11.661 2°46.683 19.2 280 14.8 102480 76
2001-10-29 09:28:38 51°11.653 2°46.66 17.5 281 14.8 102480 76
2001-10-29 09:28:43 51°11.645 2°46.637 16.9 282 14.8 102480 76
2001-10-29 09:28:48 51°11.637 2°46.614 17.9 281 14.8 102480 77
2001-10-29 09:28:53 51°11.629 2°46.591 16.9 286 14.8 102480 77
2001-10-29 09:28:58 51°11.621 2°46.568 16.3 283 14.8 102480 75
2001-10-29 09:29:03 51°11.613 2°46.546 16 280 14.8 102480 75
2001-10-29 09:29:08 51°11.606 2°46.523 17.7 280 14.7 102480 75
2001-10-29 09:29:13 51°11.598 2°46.499 16.2 281 14.7 102480 75
2001-10-29 09:29:18 51°11.59 2°46.476 17.4 282 14.7 102490 76
2001-10-29 09:29:23 51°11.582 2°46.453 17 282 14.7 102490 76
2001-10-29 09:29:28 51°11.574 2°46.43 17.2 282 14.7 102480 75
2001-10-29 09:29:33 51°11.566 2°46.408 19.2 281 14.7 102480 75
2001-10-29 09:29:38 51°11.558 2°46.385 18.8 284 14.7 102490 76
2001-10-29 09:29:43 51°11.55 2°46.362 17.8 280 14.7 102490 76
2001-10-29 09:29:49 51°11.541 2°46.334 18.3 282 14.7 102490 76
2001-10-29 09:29:53 51°11.535 2°46.315 18.7 278 14.7 102490 76
2001-10-29 09:29:58 51°11.527 2°46.293 17.7 282 14.7 102500 76
2001-10-29 09:30:03 51°11.519 2°46.271 16.8 281 14.7 102500 76
2001-10-29 09:30:08 51°11.511 2°46.248 16.6 279 14.7 102480 75
2001-10-29 09:30:13 51°11.502 2°46.226 16.6 278 14.7 102480 75
2001-10-29 09:30:18 51°11.494 2°46.203 17.7 281 14.7 102480 75
2001-10-29 09:30:23 51°11.485 2°46.182 20.1 276 14.7 102480 75
2001-10-29 09:30:28 51°11.477 2°46.158 19.4 277 14.7 102490 75
2001-10-29 09:30:33 51°11.468 2°46.137 18 278 14.7 102490 75
2001-10-29 09:30:38 51°11.46 2°46.114 19.5 277 14.7 102490 76
2001-10-29 09:30:43 51°11.451 2°46.092 18.8 282 14.7 102490 76
2001-10-29 09:30:49 51°11.442 2°46.064 18.6 281 14.7 102480 74
2001-10-29 09:30:53 51°11.436 2°46.046 17.1 283 14.7 102480 74
2001-10-29 09:30:58 51°11.429 2°46.023 18.2 282 14.7 102470 74
2001-10-29 09:31:03 51°11.421 2°46 19 283 14.7 102470 74
2001-10-29 09:31:08 51°11.414 2°45.975 17.7 281 14.7 102490 74
2001-10-29 09:31:13 51°11.408 2°45.951 18.3 282 14.7 102490 74
2001-10-29 09:31:18 51°11.402 2°45.927 17.2 282 14.7 102480 74
2001-10-29 09:31:23 51°11.396 2°45.903 16.9 275 14.7 102480 74
2001-10-29 09:31:28 51°11.389 2°45.879 16.1 278 14.7 102490 75
2001-10-29 09:31:34 51°11.38 2°45.852 16.5 277 14.7 102490 75
2001-10-29 09:31:38 51°11.374 2°45.833 17.3 277 14.7 102480 74
2001-10-29 09:31:43 51°11.367 2°45.81 17.8 278 14.7 102480 74
2001-10-29 09:31:49 51°11.358 2°45.782 17.3 281 14.7 102480 75
2001-10-29 09:31:53 51°11.352 2°45.763 16.8 279 14.7 102480 75
2001-10-29 09:31:58 51°11.344 2°45.74 16 277 14.7 102480 76
2001-10-29 09:32:03 51°11.336 2°45.717 16 277 14.7 102480 76
2001-10-29 09:32:08 51°11.328 2°45.695 16.2 281 14.7 102490 76
2001-10-29 09:32:13 51°11.32 2°45.672 16.5 274 14.7 102490 76
2001-10-29 09:32:18 51°11.312 2°45.649 16.3 274 14.7 102490 76
2001-10-29 09:32:23 51°11.304 2°45.626 15.8 277 14.7 102490 76
2001-10-29 09:32:28 51°11.296 2°45.604 15.5 277 14.7 102480 77